Regional Weather Roundup
Issued by NWS

Home | Current Version | Previous Version | Text Only | Print | Product List | Glossary Off
Versions: 1 2 3 4 5 6 7 8 9 10 11 12 13 14 15 16 17 18 19 20 21 22 23 24 25 26 27 28 29 30 31 32 33 34 35 36 37 38 39 40 41 42 43 44 45 46 47 48 49 50

000
ASUS43 KOAX 211610
RWRNE

WEATHER ROUNDUP FOR NEBRASKA
NATIONAL WEATHER SERVICE OMAHA NE
1100 AM CDT MON AUG 21 2017

NOTES: SATELLITE DATA IS BEING USED TO AUGMENT CLOUD COVER ABOVE
       12000 FEET.
       "FAIR" INDICATES FEW OR NO CLOUDS BELOW 12,000 FEET WITH NO
       SIGNIFICANT WEATHER AND/OR OBSTRUCTIONS TO VISIBILITY.


NEZ001>004-019>022-054>056-211700-
NEBRASKA PANHANDLE

CITY           SKY/WX    TMP DP  RH WIND       PRES   REMARKS
SCOTTSBLUFF    SUNNY     75  56  51 W10       30.07R
ALLIANCE       MOSUNNY   74  60  61 N15       30.04R
CHADRON        PTSUNNY   73  63  70 NW8       30.05R
GORDON         CLOUDY    74  66  76 N15       30.03R
KIMBALL        SUNNY     78  51  38 N15G23    30.12R
SIDNEY         SUNNY     83  52  34 N15       30.06R
$$

NEZ057>060-069>072-079>082-211700-
SOUTHWEST NEBRASKA

CITY           SKY/WX    TMP DP  RH WIND       PRES   REMARKS
NORTH PLATTE   SUNNY     80  69  69 S9        29.95F
IMPERIAL       SUNNY     80  64  58 VRB3      29.97F
LEXINGTON      SUNNY     80  67  64 S12       29.95S
MCCOOK         MOSUNNY   82  64  54 S13       29.96S
OGALLALA       CLOUDY    74  69  85 NW9       30.00S
$$

NEZ005>010-023>029-035>040-094-211700-
NORTH CENTRAL NEBRASKA

CITY           SKY/WX    TMP DP  RH WIND       PRES   REMARKS
VALENTINE      CLOUDY    72  67  84 SW7       29.98R HAZE
AINSWORTH      FOG       70  70 100 SE5       29.97R VSB 3/4
BROKEN BOW     SUNNY     79  69  71 SW10      29.93F
O`NEILL        CLOUDY    71  71  98 SE6       29.95S
ORD            SUNNY     79  67  66 S13G18    29.90F
THEDFORD       CLOUDY    74  69  85 CALM      29.98R
$$

NEZ041-046>049-061>064-073>077-083>087-211700-
SOUTH CENTRAL NEBRASKA

CITY           SKY/WX    TMP DP  RH WIND       PRES   REMARKS
GRAND ISLAND   MOSUNNY   81  71  71 S10       29.96S
AURORA         MOSUNNY   82  70  68 S13       29.97F
HASTINGS       PTSUNNY   81  66  60 S13G25    29.97S
HEBRON         CLOUDY    84  67  55 S10G16    29.97F
HOLDREGE       PTSUNNY   78  63  59 S12       29.97S
KEARNEY        MOSUNNY   81  67  62 S14       29.96S
YORK           MOSUNNY   79  72  78 S12       29.97F
$$

NEZ011>018-030>034-042>045-211700-
NORTHEAST NEBRASKA

CITY           SKY/WX    TMP DP  RH WIND       PRES   REMARKS
NORFOLK        SUNNY     78  69  73 S18G31    29.93F
ALBION         MOSUNNY   78  72  82 S12       29.94F
BLAIR          MOSUNNY   76  68  76 SE14G24   30.00S
COLUMBUS       MOSUNNY   77  70  79 SE16      29.96F
FREMONT        MOSUNNY   76  68  74 SE18G25   29.98F
TEKAMAH        MOSUNNY   76  67  73 SE20G28   29.97F
WAYNE          SUNNY     76  72  88 S17G26    29.95S
$$

NEZ050>053-065>068-078-088>093-211700-
SOUTHEAST NEBRASKA

CITY           SKY/WX    TMP DP  RH WIND       PRES   REMARKS
LINCOLN        CLOUDY    76  69  79 SE18      30.00F
OMAHA EPPLEY   PTSUNNY   78  66  66 SE25G31   30.00F
BEATRICE       PTSUNNY   81  70  70 SE9       30.01S
FALLS CITY     LGT RAIN  74  71  91 E14G23    30.05F
NEBRASKA CITY  CLOUDY    74  70  85 SE10G21   30.04F
PLATTSMOUTH    CLOUDY    75  65  71 SE12G24   30.03S
$$

NEZ044-045-051>053-067-211700-
OMAHA AREA

CITY           SKY/WX    TMP DP  RH WIND       PRES   REMARKS
OMAHA EPPLEY   PTSUNNY   78  66  66 SE25G31   30.00F
BLAIR          MOSUNNY   76  68  76 SE14G24   30.00S
FREMONT        MOSUNNY   76  68  74 SE18G25   29.98F
MILLARD        MOSUNNY   77  68  72 SE21      30.01S
OFFUTT AFB     PTSUNNY   76  66  69 SE17G24   30.01F
PLATTSMOUTH    CLOUDY    75  65  71 SE12G24   30.03S
WAHOO          FAIR      78  69  74 SE20G28   29.99F
$$



USA.gov is the U.S. government's official web portal to all federal, state and local government web resources and services.